Weather in Lugano

Switzerland     46°00′30″N   8°56′48″E
temp.,
°C
wind,
m/s
gust,
m/s
humid.,
%
clouds,
%
prec.,
mm/h
press.,
hPa
HPBL,
m
20 september, mon
mon2023:00+7nne469312 0.0 1013106
02:00+7nne45925 0.0 101493
05:00+7nne359052 0.0 101481
08:00+9nne358649 0.0 101494
11:00+16nne235216 0.0 1014846
14:00+19s224445 0.0 10141903
17:00+16ssw226891 0.4 1015550
20:00+11nne228637 1.4 101716
21 september, tue
tue2123:00+10nne339060 0.1 101943
02:00+9ne22907 0.3 102126
05:00+8ne22885 0.0 102135
08:00+9ne22865 0.0 102337
11:00+16sw11624 0.0 1023696
14:00+18sw225540 0.0 10221469
17:00+18ssw216013 0.0 10221064
20:00+12e00921 0.0 102410
22 september, wed
wed2223:00+10ne22940 0.0 102519
02:00+9ne22881 0.0 102532
05:00+8nne22805 0.0 102539
08:00+9ne2274100 0.0 102443
11:00+17sw105710 0.0 1022569
14:00+19sw225099 0.0 10211110
17:00+18ssw2162100 0.0 1019684
20:00+12e119351 0.0 102010
23 september, thu
thu2323:00+11ne229426 0.0 102216
02:00+12ne1185100 0.0 102232
05:00+11ne0093100 0.2 102222
08:00+11nnw019699 0.3 102154
11:00+13wnw018782 0.1 1021377
14:00+15sw217487 0.2 1019758
17:00+16sw2167100 0.1 10171008
20:00+12nnw0089100 0.1 101810
24 september, fri
fri2423:00+11ne2294100 0.0 101819
02:00+10ne229399 0.0 101725
05:00+10ne2292100 0.0 101721
08:00+10ne228552 0.0 101733
11:00+17ssw116512 0.0 1016630
14:00+19ssw32586 0.0 10151127
17:00+19ssw226319 0.0 1015967
20:00+12e119196 0.0 101710